This is the latest recevied weather packets stored in our database for station/object KD4EG. If no packets are shown the sender has not sent any weather packets the latest 1 day(s).
| Time | Temp. | Humidity | Pressure | Rain* | Wind** | Luminosity | Snow |
|---|---|---|---|---|---|---|---|
| 1836274755 | 17.78° C | 78% | 1021.4 hPa | 0 mm | 0 m/s | 0 W/m² | - |
| 1836274453 | 17.78° C | 77% | 1021.5 hPa | 0 mm | 0 m/s | 0 W/m² | - |
| 1836274306 | 17.78° C | 79% | 1021.7 hPa | 0 mm | 0 m/s | 0 W/m² | - |
| 1836274151 | 17.78° C | 77% | 1021.6 hPa | 0 mm | 0 m/s | 0 W/m² | - |
| 1778051341 | 16.11° C | 71% | 1013.3 hPa | 0 mm | 0 m/s | 0 W/m² | - |
| 1778051038 | 16.11° C | 71% | 1013.4 hPa | 0 mm | 0.45 m/s, 324° | 0 W/m² | - |
| 1778050735 | 16.11° C | 70% | 1013.3 hPa | 0 mm | 0.45 m/s, 342° | 0 W/m² | - |
| 1778050433 | 16.11° C | 70% | 1013.4 hPa | 0 mm | 0 m/s | 0 W/m² | - |
| 1778050129 | 16.11° C | 71% | 1013.7 hPa | 0 mm | 0.45 m/s, 299° | 0 W/m² | - |
| 1778049824 | 16.11° C | 70% | 1013.4 hPa | 0 mm | 0.45 m/s, 340° | 0 W/m² | - |
| 1778049522 | 16.11° C | 70% | 1013.3 hPa | 0 mm | 0 m/s | 0 W/m² | - |
| 1778049219 | 16.67° C | 69% | 1013.4 hPa | 0 mm | 0.45 m/s, 298° | 0 W/m² | - |
| 1778048918 | 16.11° C | 70% | 1013.4 hPa | 0 mm | 0 m/s | 0 W/m² | - |
| 1778048615 | 16.11° C | 71% | 1013.5 hPa | 0 mm | 0.45 m/s, 298° | 0 W/m² | - |
| 1778048311 | 15.56° C | 70% | 1013.6 hPa | 0 mm | 0.45 m/s, 309° | 0 W/m² | - |
| 1778048008 | 15.56° C | 71% | 1013.8 hPa | 0 mm | 0.45 m/s, 310° | 0 W/m² | - |
| 1778047706 | 15.56° C | 72% | 1013.4 hPa | 0 mm | 0.45 m/s, 307° | 0 W/m² | - |
| 1778047404 | 15.56° C | 71% | 1013.7 hPa | 0 mm | 0 m/s | 0 W/m² | - |
| 1778047100 | 15.56° C | 72% | 1013.6 hPa | 0 mm | 0.45 m/s, 283° | 0 W/m² | - |
| 1778046797 | 15.56° C | 70% | 1013.8 hPa | 0 mm | 0 m/s | 0 W/m² | - |
| 1778046494 | 15.56° C | 70% | 1013.9 hPa | 0 mm | 0.89 m/s, 243° | 0 W/m² | - |
| 1778046191 | 16.11° C | 69% | 1013.8 hPa | 0 mm | 0 m/s | 0 W/m² | - |
| 1778045887 | 16.11° C | 69% | 1013.9 hPa | 0 mm | 0 m/s | 0 W/m² | - |
| 1778045586 | 16.11° C | 69% | 1014.1 hPa | 0 mm | 0.45 m/s, 309° | 0 W/m² | - |
| 1778045283 | 16.11° C | 69% | 1014 hPa | 0 mm | 0 m/s | 0 W/m² | - |
* Rain latest hour (hover to see other rain measurements)
** Current wind speed in m/s (hover to see current wind gust speed)